Find Kiku-4

NORAD ID: 13492 Int'l Des: 1982-087 Owner: NASDA Country: J operational
LEOCIRCULAR

Aktuelle Ansicht

3D-Globus wird geladen...

Über Kiku-4

Beschreibung wird geladen...

Nächste Überflüge

Passes for default location (London). Set your location on the main map for personalized predictions.

Höhenverlauf

Loading altitude history...

Zweizeiliger Elementsatz

1 13492U 82087A 26150.05104391 -.00000070 00000-0 52168-4 0 9995
2 13492 44.6176 14.3072 0011050 38.5363 118.4089 13.71269620190122
Epoch: 30. Mai 2026 • Age: 12 hours

Aktueller Status

Höhe 991.3 km
Geschwindigkeit 7.36 km/s
Subsatellitenpunkt 42.24°N, 5.41°W
Startdatum 3. Sept. 1982
Alter 43.7 years
Typ other

Technische Details

Klassifizierung Payload
Masse 385.00 kg
Trockenmasse 366.00 kg
Gesamtmasse 385.00 kg
Länge 2.10 m
Durchmesser 1.10 m
Spannweite 6.50 m
Form Box + 2 Wing
Hersteller TOSH
Bus-Typ ETS-3
Phasenstatus In Orbit
Besitzer/Staat NASDA/J

Most Searched